Regional Weather Roundup
Issued by NWS

Home | Current Version | Previous Version | Graphics & Text | Print | Product List | Glossary On
Versions: 1 2 3 4 5 6 7 8 9 10 11 12 13 14 15 16 17 18 19 20 21 22 23 24 25 26 27 28 29 30 31 32 33 34 35 36 37 38 39 40 41 42 43 44 45 46 47 48 49 50
000
ASUS45 KSLC 020310
RWRUT

UTAH REGIONAL WEATHER ROUNDUP
NATIONAL WEATHER SERVICE SALT LAKE CITY UT
900 PM MDT TUE SEP 01 2015

UTZ001>011-023>025-020400-

NORTHERN UTAH

CITY           SKY/WX    TMP DP  RH WIND       PRES   REMARKS
BRIGHAM CITY   CLEAR     76  43  30 SE6       29.89R
HILL AFB       MOCLDY    78  45  31 E9        29.94R
LOGAN          CLEAR     75  42  30 S5        29.90S
OGDEN          PTCLDY    76  52  43 S8        29.91R
PROVO AIRPORT  PTCLDY    72  45  37 SE6       29.95R
SALT LAKE CITY PTCLDY    83  38  20 S9        29.89R
VERNAL         MOCLDY    67  47  48 W5        30.13R
WENDOVER       CLEAR     84  28  13 S13       29.85R
HEBER CITY     PTCLDY    73  37  27 SE8       30.04R
WEST JORDAN    CLEAR     79  37  22 S6        29.95R

$$

UTZ012>022-026-027-020400-

SOUTHERN/CENTRAL UTAH

CITY           SKY/WX    TMP DP  RH WIND       PRES   REMARKS
BLANDING       PTCLDY    72  44  36 NW3       30.23R
BRYCE CANYON   PTCLDY    58  44  60 S6        30.28R
CEDAR CITY     PTCLDY    73  39  29 SW10      30.10R
DELTA          CLEAR     80  28  14 S14       29.98R
HANKSVILLE     MOCLDY    72  50  46 NE9       30.05R
MILFORD        CLEAR     76  32  20 S7        30.03R
MOAB/CYNLANDS  MOCLDY    78  51  38 SW25G37   30.08R THUNDER
PRICE          PTCLDY    65  46  50 N7        30.15R
ST GEORGE      PTCLDY    90  45  20 W10       29.92R
KANAB          PTCLDY    68  57  68 CALM      30.15R

$$

REGIONAL REPORTS     COLORADO/ARIZONA

CITY           SKY/WX    TMP DP  RH WIND       PRES   REMARKS
CRAIG, CO      CLOUDY    65  43  44 NW6       30.20R
GRAND JUNCTION CLOUDY    72  47  40 E16       30.11R
RIFLE          LGT RAIN  64  50  60 N6        30.25R
MONTROSE       CLOUDY    70  48  45 W15G29    30.19R
CORTEZ         PTCLDY    67  47  48 S7        30.17R
PAGE, AZ       PTCLDY    81  51  35 SW7       30.03R
GRAND CANYON   PTCLDY    62  53  72 E5        30.25R
KINGMAN        CLEAR     82  43  25 S7        29.99R
FLAGSTAFF      MOCLDY    63  52  67 SW5       30.30R

$$

REGIONAL REPORTS    NEVADA/IDAHO/WYOMING

CITY           SKY/WX    TMP DP  RH WIND       PRES   REMARKS
LAS VEGAS, NV  PTCLDY    94  50  22 SW7       29.80R HX  91
ELY            CLEAR     74  28  18 S12       30.08R
ELKO           CLEAR     76  27  16 S5        29.91R
POCATELLO, ID  CLEAR     75  35  23 S3        29.88R
BURLEY         PTCLDY    65  52  62 S5        29.83R
EVANSTON, WY   PTCLDY    67  34  29 SW9       30.15R
ROCK SPRINGS   CLOUDY    65  46  50 SW10      30.15R
KEMMERER       CLEAR     64  32  29 W5        30.18R

$$



USA.gov is the U.S. government's official web portal to all federal, state and local government web resources and services.